This is the latest recevied weather packets stored in our database for station/object C31FR-13. If no packets are shown the sender has not sent any weather packets the latest 10 day(s).
| Time | Temp. | Humidity | Pressure | Rain* | Wind** | Luminosity | Snow |
|---|---|---|---|---|---|---|---|
| 1777580763 | 16.11° C | 68% | 1019.8 hPa | - | - | - | - |
| 1777580462 | 15.56° C | 69% | 1019.6 hPa | - | - | - | - |
| 1777580162 | 15.56° C | 66% | 1019.6 hPa | - | - | - | - |
| 1777579863 | 16.11° C | 65% | 1019.4 hPa | - | - | - | - |
| 1777579563 | 16.67° C | 68% | 1019.3 hPa | - | - | - | - |
| 1777579263 | 16.11° C | 69% | 1019.3 hPa | - | - | - | - |
| 1777578963 | 16.11° C | 68% | 1019.2 hPa | - | - | - | - |
| 1777578662 | 16.67° C | 68% | 1019.1 hPa | - | - | - | - |
| 1777578362 | 17.22° C | 68% | 1019 hPa | - | - | - | - |
| 1777578062 | 17.78° C | 65% | 1018.9 hPa | - | - | - | - |
| 1777577763 | 17.22° C | 62% | 1018.8 hPa | - | - | - | - |
| 1777577462 | 17.22° C | 62% | 1018.7 hPa | - | - | - | - |
| 1777577162 | 17.78° C | 62% | 1018.6 hPa | - | - | - | - |
| 1777576863 | 17.22° C | 62% | 1018.5 hPa | - | - | - | - |
| 1777576563 | 17.22° C | 62% | 1018.5 hPa | - | - | - | - |
| 1777576263 | 17.22° C | 63% | 1018.4 hPa | - | - | - | - |
| 1777575963 | 17.78° C | 62% | 1018.4 hPa | - | - | - | - |
| 1777575663 | 17.78° C | 63% | 1018.3 hPa | - | - | - | - |
| 1777575363 | 17.78° C | 67% | 1018.2 hPa | - | - | - | - |
| 1777574762 | 17.78° C | 67% | 1018.1 hPa | - | - | - | - |
| 1777574462 | 17.22° C | 66% | 1017.9 hPa | - | - | - | - |
| 1777574162 | 17.78° C | 63% | 1017.9 hPa | - | - | - | - |
| 1777573863 | 17.78° C | 64% | 1017.9 hPa | - | - | - | - |
| 1777573563 | 17.78° C | 64% | 1017.8 hPa | - | - | - | - |
| 1777573262 | 18.33° C | 62% | 1017.9 hPa | - | - | - | - |
* Rain since midnight (hover to see other rain measurements)
** Current wind speed in m/s (hover to see current wind gust speed)